Weather History for Indianapolis, IN

Change the Weather History Date:

Friday, May 23, 2014

  Actual Average Record
Temperature  
Mean Temperature 63 °F 65 °F  
Max Temperature 73 °F 75 °F 92 °F (1939)
Min Temperature 52 °F 55 °F 37 °F (1963)
Degree Days  
Heating Degree Days 2 3  
Month to date heating degree days 151 121  
Since 1 July heating degree days 6204 5343  
Cooling Degree Days 0 3  
Month to date cooling degree days 43 40  
Year to date cooling degree days 47 55  
Growing Degree Days 12 (Base 50)    
Moisture  
Dew Point 47 °F    
Average Humidity 61    
Maximum Humidity 83    
Minimum Humidity 38    
Precipitation  
Precipitation 0.00 in 0.16 in 3.13 in (1968)
Month to date precipitation 4.85 3.78  
Year to date precipitation 17.41 16.13  
Snow  
Snow 0.00 in 0.00 in - ()
Month to date snowfall T 0.0  
Since 1 July snowfall 55.7 25.9  
Snow Depth 0.00 in    
Sea Level Pressure  
Sea Level Pressure 30.13 in    
Wind  
Wind Speed 7 mph (North)    
Max Wind Speed 16 mph    
Max Gust Speed 24 mph    
Visibility 10 miles    
Events      
T = Trace of Precipitation, MM = Missing Value Source: NWS Daily Summary

Daily Weather History Graph

Daily Weather History Graph

Search for Another Location

Airport:

Trip Planner

Search our weather history database for the weather conditions in past years. The results will help you decide how hot, cold, wet, or windy it might be!

Date:

Astronomy

May. 23, 2014 Rise Set
Actual Time 6:24 AM EDT 9:00 PM EDT
Civil Twilight 5:53 AM EDT 9:31 PM EDT
Nautical Twilight 5:14 AM EDT 10:10 PM EDT
Astronomical Twilight 4:30 AM EDT 10:54 PM EDT
Moon 3:17 AM EDT (5/23) 3:53 PM EDT (5/23)
Length of Visible Light 15h 38m
Length of Day
14h 35m
Waning Crescent, 27% of the Moon is Illuminated
May 23
Waning Crescent
May 28
New
Jun 5
First Quarter
Jun 13
Full
Jun 19
Last Quarter

Hourly Weather History & Observations

Time (EDT) Temp. Dew Point Humidity Pressure Visibility Wind Dir Wind Speed Gust Speed Precip Events Conditions
12:54 AM 61.0 °F 50.0 °F 67% 30.08 in 10.0 mi NNE 9.2 mph - N/A   Mostly Cloudy
1:54 AM 59.0 °F 48.9 °F 69% 30.08 in 10.0 mi NNE 9.2 mph - N/A   Partly Cloudy
2:54 AM 57.0 °F 48.9 °F 74% 30.09 in 10.0 mi NNE 4.6 mph - N/A   Clear
3:54 AM 55.9 °F 48.0 °F 75% 30.10 in 10.0 mi Calm Calm - N/A   Clear
4:54 AM 54.0 °F 48.0 °F 80% 30.10 in 10.0 mi WNW 3.5 mph - N/A   Clear
5:54 AM 53.1 °F 48.0 °F 83% 30.11 in 10.0 mi West 3.5 mph - N/A   Partly Cloudy
6:54 AM 53.1 °F 48.9 °F 86% 30.13 in 10.0 mi WNW 3.5 mph - N/A   Scattered Clouds
7:54 AM 55.0 °F 48.9 °F 80% 30.14 in 10.0 mi Calm Calm - N/A   Mostly Cloudy
8:54 AM 59.0 °F 48.0 °F 67% 30.16 in 10.0 mi NE 6.9 mph - N/A   Partly Cloudy
9:54 AM 62.1 °F 48.0 °F 60% 30.16 in 10.0 mi ENE 5.8 mph - N/A   Partly Cloudy
10:54 AM 64.9 °F 48.0 °F 54% 30.16 in 10.0 mi ENE 5.8 mph - N/A   Partly Cloudy
11:54 AM 68.0 °F 46.9 °F 47% 30.17 in 10.0 mi Variable 6.9 mph - N/A   Partly Cloudy
12:54 PM 69.1 °F 46.9 °F 45% 30.16 in 10.0 mi NNW 6.9 mph 16.1 mph N/A   Partly Cloudy
1:54 PM 70.0 °F 46.9 °F 44% 30.16 in 10.0 mi NNW 10.4 mph - N/A   Scattered Clouds
2:54 PM 71.1 °F 48.0 °F 44% 30.14 in 10.0 mi NNW 11.5 mph - N/A   Partly Cloudy
3:54 PM 72.0 °F 46.0 °F 40% 30.15 in 10.0 mi NNW 11.5 mph - N/A   Partly Cloudy
4:54 PM 72.0 °F 44.1 °F 37% 30.14 in 10.0 mi North 11.5 mph - N/A   Scattered Clouds
5:54 PM 72.0 °F 46.9 °F 41% 30.14 in 10.0 mi NNW 10.4 mph - N/A   Scattered Clouds
6:54 PM 71.1 °F 46.9 °F 42% 30.12 in 10.0 mi NNW 8.1 mph - N/A   Scattered Clouds
7:54 PM 70.0 °F 46.9 °F 44% 30.12 in 10.0 mi NNW 8.1 mph - N/A   Scattered Clouds
8:54 PM 64.9 °F 46.9 °F 52% 30.12 in 10.0 mi North 5.8 mph - N/A   Scattered Clouds
9:54 PM 64.9 °F 46.9 °F 52% 30.12 in 10.0 mi North 5.8 mph - N/A   Scattered Clouds
10:54 PM 63.0 °F 46.9 °F 56% 30.14 in 10.0 mi North 9.2 mph - N/A   Partly Cloudy
11:54 PM 61.0 °F 46.0 °F 58% 30.14 in 10.0 mi North 11.5 mph - N/A   Clear